[Iaude] MPEC D83: 2024 DD1 [a=1.50,e=0.24,i=11.4,H=23.6]
    mpec at cfa.harvard.edu 
    mpec at cfa.harvard.edu
       
    Tue Feb 20 08:57:43 EST 2024
    
    
  
M.P.E.C. 2024-D83                             Issued 2024 February 20, 13:56 UT
     The Minor Planet Electronic Circulars contain information on unusual
         minor planets, routine data on comets and natural satellites,
         and occasional editorial announcements.  They are published
    on behalf of Division F of the International Astronomical Union by the
          Minor Planet Center, Smithsonian Astrophysical Observatory,
                          Cambridge, MA 02138, U.S.A.
			  
             Prepared using the Tamkin Foundation Computer Network
                              MPC at CFA.HARVARD.EDU
            URL https://www.minorplanetcenter.net/    ISSN 1523-6714
                                    2024 DD1                                    
Observations:
     K24D01D* C2024 02 17.58589512 49 25.704+36 29 20.74         22.72wXED083F52
     K24D01D  C2024 02 17.59713812 49 26.114+36 29 18.94         22.72wXED083F52
     K24D01D  C2024 02 17.60832912 49 26.536+36 29 17.10         22.23wXED083F52
     K24D01D KC2024 02 18.31093512 50 03.732+36 27 15.23         22.21GVED083V06
     K24D01D KC2024 02 18.32731812 50 04.348+36 27 13.79         22.63GVED083V06
     K24D01D KC2024 02 18.34369312 50 04.916+36 27 11.88         22.05GVED083V06
     K24D01D KC2024 02 18.36007012 50 05.572+36 27 09.68         22.71GVED083V06
     K24D01D KC2024 02 19.33570512 50 50.32 +36 24 02.6          22.6 GVED083H21
     K24D01D KC2024 02 19.33859412 50 50.42 +36 24 02.0          22.3 GVED083H21
     K24D01D KC2024 02 19.34148312 50 50.50 +36 24 01.4          22.3 GVED083H21
     K24D01D KC2024 02 19.34437112 50 50.59 +36 24 00.8          22.7 GVED083H21
     K24D01D DC2024 02 20.50271 12 51 38.31 +36 19 38.8          23.0 GVED083695
     K24D01D DC2024 02 20.51177 12 51 38.56 +36 19 36.0          24.1 GVED083695
     K24D01D DC2024 02 20.52082 12 51 38.80 +36 19 33.3          22.4 GVED083695
Observer details:
695 Kitt Peak.  Observer A. F. Tubbiolo.  2.3-m f/9 reflector + CCD.
F52 Pan-STARRS 2, Haleakala.  Observers J. Herman, T. Lowe, P. Minguez, A.
    Schultz, I. Smith.  Measurers K. Chambers, T. de Boer, J. Fairlamb, H.
    Gao, M. Huber, C.-C. Lin, E. Magnier, Y. Ramanjooloo, R. Wainscoat, R.
    Weryk.  1.8-m Ritchey-Chretien + CCD.
H21 Astronomical Research Observatory, Westfield.  Observer R. Holmes.
    Measurers T. Linder, R. Holmes, L. Horn.  1.3-m f/4.0 astrograph + CCD.
V06 Catalina Sky Survey-Kuiper.  Observer J. B. Fazekas.  Measurers T. Beuden,
    V. F. Carvajal, D. Fay, J. B. Fazekas, D. C. Fuls, A. R. Gibbs, A. D.
    Grauer, H. Groeller, J. K. Hogan, R. A. Kowalski, S. M. Larson, G. J.
    Leonard, D. Rankin, R. L. Seaman, F. C. Shelly, K. W. Wierzchos.  1.55-m
    reflector + 1K CCD.
Orbital elements:
2024 DD1                                                 Earth MOID = 0.1385 AU
Epoch 2024 Mar. 31.0 TT = JDT 2460400.5                 MPC                     
M 354.68825              (2000.0)            P               Q                  
n   0.53496064     Peri.  177.23331     -0.95253173     +0.29657213             
a   1.5028703      Node    20.42888     -0.28296382     -0.77913290             
e   0.2413354      Incl.   11.36169     -0.11231550     -0.55226524             
P   1.84           H   23.69          G   0.15           U   9                  
Residuals in seconds of arc
240217 F52  0.0   0.1+    240218 V06  0.5-  0.0     240219 H21  0.1-  0.0
240217 F52  0.0   0.1+    240218 V06  0.2+  0.1-    240220 695  0.0   0.3-
240217 F52  0.1+  0.3+    240219 H21  0.0   0.1+    240220 695  0.0   0.4-
240218 V06  0.1+  0.3-    240219 H21  0.1+  0.1+    240220 695  0.1-  0.4-
240218 V06  0.0   0.1+    240219 H21  0.0   0.0
Ephemeris:
2024 DD1                 a,e,i = 1.50, 0.24, 11                  q = 1.1402
Date    TT    R. A. (2000) Decl.     Delta      r    Elong.  Phase     V
2024 01 21    12 06 40.0 +35 40 14   0.4353  1.2893   126.1    38.1    24.0
...
2024 02 05    12 34 09.1 +36 26 51   0.3504  1.2438   130.9    36.8    23.4
...
2024 02 13    12 44 53.0 +36 35 13   0.3103  1.2218   133.5    35.9    23.1
...
2024 02 19    12 50 34.7 +36 25 12   0.2826  1.2065   135.6    35.0    22.8
2024 02 20    12 51 18.6 +36 21 39   0.2782  1.2041   136.0    34.8    22.8
2024 02 21    12 51 58.7 +36 17 29   0.2738  1.2018   136.3    34.6    22.7
...
2024 02 27    12 54 32.2 +35 37 20   0.2486  1.1883   138.7    33.4    22.4
...
2024 03 06    12 53 46.0 +33 50 44   0.2180  1.1726   142.5    31.0    22.1
...
2024 03 21    12 39 23.4 +26 05 43   0.1719  1.1510   152.2    23.8    21.3
A. U. Tomatic                (C) Copyright 2024 MPC           M.P.E.C. 2024-D83
    
    
More information about the Iaude
mailing list